Погода в Гарях

Россия / Ивановская область     56°55′23″N   39°41′12″E
темп.,
°C
ветер,
м/с
пор.,
м/с
влажн.,
%
обл.,
%
осадки,
мм/ч
давл.,
гПа
погр.,
м
20 июня, вс
вс2000:00+18зюз34745 0.0 102247
03:00+16зюз33783 0.0 102328
06:00+18зюз24825 0.0 1023114
09:00+23юз33680 0.0 1022371
12:00+26юз44600 0.0 1022996
15:00+28юз34563 0.0 10211353
18:00+27ююз35703 0.0 1020228
21:00+22юз22790 0.0 102017
21 июня, пн
пн2100:00+19юз46854 0.0 102082
03:00+18юз34937 0.0 102161
06:00+20юз238713 0.0 1021104
09:00+25юз23735 0.0 1021460
12:00+27юз2364100 0.0 10211003
15:00+28юз3361100 0.0 10201246
18:00+26ююз3573100 0.0 1020185
21:00+22ю2272100 0.0 102015
22 июня, вт
вт2200:00+19юз338256 0.0 102137
03:00+19юз228296 0.0 102121
06:00+20ююз238542 0.0 102299
09:00+25ююз23724 0.0 1022481
12:00+27юз33583 0.0 10221191
15:00+29юз23565 0.0 10211381
18:00+28ю24665 0.0 1020533
21:00+23ю22755 0.0 102017
23 июня, ср
ср2300:00+21юз34830 0.0 102157
03:00+20зюз34855 0.0 102161
06:00+22зюз24856 0.0 1022130
09:00+26з23690 0.0 1022372
12:00+29юз22573 0.0 1022795
15:00+30юз33545 0.0 10211172
18:00+29ююз34675 0.0 1021245
21:00+24ююз33765 0.0 102120
24 июня, чт
чт2400:00+22юз34805 0.0 102150
03:00+21зюз34755 0.0 102163
06:00+22зюз35825 0.0 1021116
09:00+27зюз346820 0.0 1021393
12:00+30юз33575 0.0 1020924
15:00+31юз33525 0.0 10201344
18:00+30ююз35645 0.0 1018213
21:00+24юз46715 0.0 101792